| time (UTC) | temp F | wind direction | speed knots | gust knots | rain 1hr in | rain 24hr in | rain mn in | humidity % | barometer mb |
| 20260509153044 | 60 | 16 | 0.0 | 2.6 | 0.00 | 0.00 | 0.00 | 43 | 1019.1 |
| 20260509151541 | 58 | 24 | 0.0 | 3.5 | 0.00 | 0.00 | 0.00 | 44 | 1018.9 |
| 20260509150037 | 57 | 31 | 1.7 | 3.5 | 0.00 | 0.00 | 0.00 | 46 | 1018.8 |
| 20260509144538 | 56 | 23 | 2.6 | 5.2 | 0.00 | 0.00 | 0.00 | 47 | 1018.7 |
| 20260509143039 | 56 | 14 | 3.5 | 6.1 | 0.00 | 0.00 | 0.00 | 49 | 1018.6 |
| 20260509141538 | 55 | 43 | 1.7 | 4.3 | 0.00 | 0.00 | 0.00 | 49 | 1018.4 |
| 20260509140027 | 54 | 78 | 2.6 | 4.3 | 0.00 | 0.00 | 0.00 | 50 | 1018.3 |
| 20260509134526 | 53 | 37 | 2.6 | 4.3 | 0.00 | 0.00 | 0.00 | 51 | 1018.3 |
| 20260509133025 | 52 | 80 | 0.9 | 2.6 | 0.00 | 0.00 | 0.00 | 53 | 1018.2 |
| 20260509131525 | 51 | 68 | 0.9 | 4.3 | 0.00 | 0.00 | 0.00 | 54 | 1018.0 |
| 20260509130020 | 50 | 35 | 2.6 | 5.2 | 0.00 | 0.00 | 0.00 | 56 | 1017.9 |
| 20260509124517 | 50 | 72 | 0.0 | 5.2 | 0.00 | 0.00 | 0.00 | 56 | 1017.6 |
| 20260509123020 | 49 | 238 | 0.9 | 1.7 | 0.00 | 0.00 | 0.00 | 57 | 1017.4 |
| 20260509121516 | 49 | 70 | 0.0 | 2.6 | 0.00 | 0.00 | 0.00 | 57 | 1017.4 |
| 20260509120010 | 50 | 8 | 1.7 | 2.6 | 0.00 | 0.00 | 0.00 | 57 | 1017.0 |
| 20260509114509 | 50 | 302 | 0.0 | 0.9 | 0.00 | 0.00 | 0.00 | 57 | 1016.9 |
| 20260509113008 | 49 | 330 | 0.0 | 2.6 | 0.00 | 0.00 | 0.00 | 57 | 1016.8 |
| 20260509111507 | 48 | 295 | 0.0 | 0.0 | 0.00 | 0.00 | 0.00 | 58 | 1016.5 |
| 20260509110004 | 48 | 295 | 0.0 | 0.9 | 0.00 | 0.00 | 0.00 | 58 | 1016.5 |
| 20260509104506 | 48 | 295 | 0.0 | 0.9 | 0.00 | 0.00 | 0.00 | 57 | 1016.4 |
| 20260509103103 | 47 | 245 | 0.0 | 0.9 | 0.00 | 0.00 | 0.00 | 58 | 1016.3 |
| 20260509101559 | 47 | 12 | 0.0 | 0.0 | 0.00 | 0.00 | 0.00 | 58 | 1016.0 |
| 20260509100110 | 47 | 303 | 0.0 | 0.0 | 0.00 | 0.00 | 0.00 | 59 | 1015.9 |
| 20260509094555 | 47 | 303 | 0.0 | 0.9 | 0.00 | 0.00 | 0.00 | 58 | 1015.8 |
| 20260509093050 | 48 | 312 | 0.0 | 0.0 | 0.00 | 0.00 | 0.00 | 57 | 1015.6 |
| 20260509091602 | 48 | 312 | 0.0 | 0.9 | 0.00 | 0.00 | 0.00 | 56 | 1015.6 |
| 20260509090043 | 49 | 290 | 0.0 | 0.0 | 0.00 | 0.00 | 0.00 | 55 | 1015.4 |
| 20260509084540 | 49 | 293 | 0.0 | 0.9 | 0.00 | 0.00 | 0.00 | 55 | 1015.3 |
| 20260509083043 | 50 | 338 | 0.0 | 1.7 | 0.00 | 0.00 | 0.00 | 53 | 1015.2 |
| 20260509081536 | 51 | 295 | 0.0 | 0.9 | 0.00 | 0.00 | 0.00 | 52 | 1015.2 |
| 20260509080039 | 51 | 283 | 0.0 | 0.9 | 0.00 | 0.00 | 0.00 | 53 | 1015.1 |
| 20260509074531 | 52 | 324 | 0.0 | 0.9 | 0.00 | 0.00 | 0.00 | 51 | 1015.0 |
| 20260509073027 | 53 | 276 | 0.0 | 1.7 | 0.00 | 0.00 | 0.00 | 50 | 1015.0 |
| 20260509071523 | 53 | 242 | 0.0 | 1.7 | 0.00 | 0.00 | 0.00 | 49 | 1015.0 |
| 20260509070051 | 55 | 11 | 0.0 | 3.5 | 0.00 | 0.00 | 0.00 | 47 | 1014.7 |
| 20260509064549 | 54 | 11 | 2.6 | 6.1 | 0.00 | 0.00 | 0.00 | 48 | 1014.6 |
| 20260509063054 | 54 | 347 | 1.7 | 3.5 | 0.00 | 0.00 | 0.00 | 47 | 1014.5 |
| 20260509061556 | 55 | 333 | 1.7 | 4.3 | 0.00 | 0.00 | 0.00 | 46 | 1014.5 |
| 20260509060040 | 56 | 20 | 3.5 | 5.2 | 0.00 | 0.00 | 0.00 | 45 | 1014.2 |
| 20260509054549 | 56 | 17 | 3.5 | 5.2 | 0.00 | 0.00 | 0.00 | 43 | 1014.2 |
| 20260509053053 | 57 | 12 | 3.5 | 5.2 | 0.00 | 0.00 | 0.00 | 41 | 1014.0 |
| 20260509051536 | 58 | 10 | 2.6 | 5.2 | 0.00 | 0.00 | 0.00 | 38 | 1013.9 |
| 20260509050034 | 59 | 18 | 5.2 | 8.7 | 0.00 | 0.00 | 0.00 | 36 | 1013.7 |
| 20260509044543 | 61 | 26 | 6.1 | 12.2 | 0.00 | 0.00 | 0.00 | 32 | 1013.4 |
| 20260509043004 | 60 | 24 | 5.2 | 11.3 | 0.00 | 0.00 | 0.00 | 32 | 1013.3 |
| 20260509041504 | 58 | 278 | 0.9 | 3.5 | 0.00 | 0.00 | 0.00 | 35 | 1013.0 |
| 20260509040001 | 59 | 340 | 0.9 | 3.5 | 0.00 | 0.00 | 0.00 | 34 | 1012.6 |
| 20260509034501 | 59 | 23 | 0.9 | 2.6 | 0.00 | 0.00 | 0.00 | 33 | 1012.3 |
| 20260509033100 | 59 | 333 | 1.7 | 4.3 | 0.00 | 0.00 | 0.00 | 32 | 1012.2 |
| 20260509031603 | 60 | 330 | 2.6 | 5.2 | 0.00 | 0.00 | 0.00 | 31 | 1011.8 |
| 20260509030057 | 61 | 4 | 1.7 | 3.5 | 0.00 | 0.00 | 0.00 | 31 | 1011.4 |
| 20260509024558 | 62 | 353 | 2.6 | 5.2 | 0.00 | 0.00 | 0.00 | 30 | 1011.2 |
| 20260509023055 | 64 | 355 | 2.6 | 5.2 | 0.00 | 0.00 | 0.00 | 29 | 1010.9 |
| 20260509021554 | 66 | 32 | 5.2 | 9.6 | 0.00 | 0.00 | 0.00 | 27 | 1010.9 |
| 20260509020033 | 67 | 13 | 7.0 | 10.4 | 0.00 | 0.00 | 0.00 | 26 | 1010.8 |
| 20260509014523 | 68 | 27 | 6.1 | 10.4 | 0.00 | 0.00 | 0.00 | 26 | 1010.8 |
| 20260509013020 | 69 | 23 | 6.1 | 13.0 | 0.00 | 0.00 | 0.00 | 25 | 1010.8 |
| 20260509011520 | 69 | 1 | 7.8 | 13.0 | 0.00 | 0.00 | 0.00 | 24 | 1010.7 |
| 20260509010025 | 70 | 353 | 7.0 | 13.9 | 0.00 | 0.00 | 0.00 | 24 | 1010.6 |
| 20260509004531 | 70 | 328 | 7.8 | 14.8 | 0.00 | 0.00 | 0.00 | 24 | 1010.7 |
| 20260509003118 | 71 | 328 | 7.0 | 16.5 | 0.00 | 0.00 | 0.00 | 23 | 1010.7 |
| 20260509001547 | 71 | 335 | 7.8 | 14.8 | 0.00 | 0.00 | 0.00 | 23 | 1010.6 |
| 20260509000049 | 72 | 310 | 8.7 | 14.8 | 0.00 | 0.00 | 0.00 | 22 | 1010.7 |
| 20260509000046 | 72 | 347 | 8.7 | 14.8 | 0.00 | 0.00 | 0.00 | 22 | 1010.7 |
| 20260508234550 | 73 | 314 | 7.0 | 15.6 | 0.00 | 0.00 | 0.00 | 21 | 1010.7 |
| 20260508233049 | 72 | 321 | 6.1 | 10.4 | 0.00 | 0.00 | 0.00 | 21 | 1010.6 |
| 20260508231611 | 73 | 303 | 6.1 | 12.2 | 0.00 | 0.00 | 0.00 | 21 | 1010.5 |
| 20260508230056 | 74 | 299 | 6.1 | 13.9 | 0.00 | 0.00 | 0.00 | 20 | 1010.6 |
| 20260508224540 | 74 | 307 | 7.8 | 16.5 | 0.00 | 0.00 | 0.00 | 20 | 1010.6 |
| 20260508223044 | 75 | 326 | 7.0 | 13.0 | 0.00 | 0.00 | 0.00 | 20 | 1010.6 |
| 20260508221540 | 75 | 287 | 6.1 | 13.9 | 0.00 | 0.00 | 0.00 | 19 | 1010.6 |
| 20260508220040 | 75 | 332 | 7.0 | 13.0 | 0.00 | 0.00 | 0.00 | 20 | 1010.7 |
| 20260508214545 | 75 | 340 | 7.8 | 15.6 | 0.00 | 0.00 | 0.00 | 20 | 1010.7 |
| 20260508213033 | 75 | 326 | 7.8 | 16.5 | 0.00 | 0.00 | 0.00 | 20 | 1010.7 |
| 20260508211539 | 75 | 304 | 7.0 | 15.6 | 0.00 | 0.00 | 0.00 | 21 | 1010.7 |
| 20260508210032 | 75 | 326 | 6.1 | 13.0 | 0.00 | 0.00 | 0.00 | 21 | 1010.8 |
| 20260508204528 | 75 | 319 | 7.0 | 13.9 | 0.00 | 0.00 | 0.00 | 20 | 1010.9 |
| 20260508203028 | 75 | 300 | 5.2 | 13.0 | 0.00 | 0.00 | 0.00 | 21 | 1010.9 |
| 20260508201526 | 75 | 306 | 4.3 | 12.2 | 0.00 | 0.00 | 0.00 | 22 | 1010.9 |
| 20260508200026 | 75 | 316 | 5.2 | 9.6 | 0.00 | 0.00 | 0.00 | 21 | 1010.9 |
| 20260508194520 | 74 | 283 | 5.2 | 13.9 | 0.00 | 0.00 | 0.00 | 21 | 1011.0 |
| 20260508193019 | 75 | 316 | 6.1 | 13.0 | 0.00 | 0.00 | 0.00 | 22 | 1011.1 |
| 20260508191530 | 73 | 272 | 7.0 | 12.2 | 0.00 | 0.00 | 0.00 | 24 | 1011.2 |
| 20260508190018 | 72 | 285 | 2.6 | 10.4 | 0.00 | 0.00 | 0.00 | 28 | 1011.7 |
| 20260508184541 | 72 | 264 | 4.3 | 9.6 | 0.00 | 0.00 | 0.00 | 28 | 1011.8 |
| 20260508183039 | 72 | 255 | 3.5 | 8.7 | 0.00 | 0.00 | 0.00 | 29 | 1012.1 |
| 20260508181505 | 72 | 290 | 3.5 | 7.0 | 0.00 | 0.00 | 0.00 | 29 | 1012.4 |
| 20260508180003 | 71 | 302 | 4.3 | 9.6 | 0.00 | 0.00 | 0.00 | 29 | 1012.5 |
| 20260508174611 | 70 | 276 | 4.3 | 9.6 | 0.00 | 0.00 | 0.00 | 31 | 1012.6 |
| 20260508173056 | 69 | 312 | 3.5 | 10.4 | 0.00 | 0.00 | 0.00 | 32 | 1012.8 |
| 20260508171552 | 68 | 250 | 2.6 | 8.7 | 0.00 | 0.00 | 0.00 | 36 | 1012.9 |
| 20260508170048 | 67 | 336 | 3.5 | 7.8 | 0.00 | 0.00 | 0.00 | 37 | 1013.2 |
| 20260508164544 | 66 | 277 | 4.3 | 9.6 | 0.00 | 0.00 | 0.00 | 42 | 1013.1 |
| 20260508163041 | 65 | 257 | 3.5 | 7.0 | 0.00 | 0.00 | 0.00 | 44 | 1013.4 |
| 20260508161537 | 64 | 278 | 2.6 | 7.8 | 0.00 | 0.00 | 0.00 | 47 | 1013.5 |
| 20260508160033 | 62 | 296 | 1.7 | 7.0 | 0.00 | 0.00 | 0.00 | 49 | 1013.7 |
| 20260508154528 | 61 | 231 | 4.3 | 7.8 | 0.00 | 0.00 | 0.00 | 52 | 1013.7 |